Rbgn^[z[y[W
メイン
   新天体発見情報
     Comet C/2018 A6 (Gibbs)
投稿するにはまず登録を

スレッド表示 | 新しいものから 前のトピック | 次のトピック | 下へ
投稿者 スレッド
佐藤裕久
投稿日時: 2018-1-28 20:59
モデレータ
登録日: 2005-6-12
居住地: 日本
投稿: 2505
オンライン
Comet C/2018 A6 (Gibbs)

lex R. Gibbの通報によると、1月15.4日UT、Mt Lemmonの1.5-m 反射望遠鏡で得たCCD画像から
彗星を発見した。15.38-15.39日、60秒露出4枚を重ねると細い巻雲状で、彼は拡散した6" x 7"の
コマ、幅30°、p.a. 320°に13"の尾が伸びていると注記した。
1月15.40-15.43日の間に得た4枚の60秒のフォローアップCCD露出では、拡散した7" x8"のコマ、
p.a.340°に12"の尾が伸びている。
小惑星センターのPCCP webpageに公表後、佐藤英貴氏(東京都文京区, iTelescope天文台,1月
16.71日UT, 60秒露出10枚のスタック, 0.51-m f/6.8 アストログラフ, Siding Spring, 遠隔操作:
適度な集光ある10" のコマとp.a. 110-170°にわたって15" の扇形のような尾が見え、6".5の円形
範囲で測定したw-バンド全光度は18.8等であった)らCCD位置観測者によって彗星状と観測された。

発見位置は次のとおり、

     2018 UT             R.A. (2000) Decl.       Mag.   Observer
     Jan. 15.37623   11 22 58.43   + 9 24 38.3   19.3   Gibbs
          15.38141   11 22 58.27   + 9 24 37.6   19.4     "
          15.38657   11 22 58.11   + 9 24 37.3   19.3     "
          15.39173   11 22 57.96   + 9 24 36.8   19.1     "
          15.40264   11 22 57.62   + 9 24 36.1   19.1     "
          15.41246   11 22 57.35   + 9 24 34.6   19.2     "
          15.42231   11 22 57.04   + 9 24 33.8   19.1     "
          15.43246   11 22 56.75   + 9 24 32.6   19.2     "

放物線軌道要素と位置推算表は次のとおり、


Orbital elements:
    C/2018 A6 (Gibbs)
T 2019 May 24.68801 TT                                  MPCW
q   2.8615540            (2000.0)            P               Q
                   Peri.  262.80022     -0.17792076     +0.92656498
                   Node   340.31485     +0.27332454     -0.27698331
e   1.0            Incl.   79.67194     -0.94532423     -0.25447510
>From 65 observations 2018 Jan. 15-23.

Ephemeris:
    C/2018 A6 (Gibbs)
Date    TT    R. A. (2000) Decl.     Delta      r     Elong.  Phase   m1
2017 12 24    11 30 01.7 +10 14 07   5.3203  5.6232   103.0     9.8  20.1
...
2018 01 08    11 26 06.6 +09 38 29   4.9735  5.5154   118.8     9.0  19.9
...
2018 01 16    11 22 40.2 +09 23 34   4.8011  5.4579   127.7     8.2  19.8
...
2018 01 22    11 19 27.2 +09 14 06   4.6801  5.4148   134.4     7.5  19.7
2018 01 23    11 18 51.8 +09 12 39   4.6607  5.4077   135.6     7.3  19.7
2018 01 24    11 18 15.6 +09 11 14   4.6416  5.4005   136.7     7.2  19.7
...
2018 01 30    11 14 19.9 +09 03 23   4.5322  5.3574   143.6     6.3  19.6
...
2018 02 07    11 08 19.2 +08 54 24   4.4018  5.3000   153.1     4.8  19.5
...
2018 02 22    10 55 03.0 +08 39 56   4.2129  5.1926   171.2     1.7  19.3

(CBET 4479、MPEC 2018-B100)

スレッド表示 | 新しいものから 前のトピック | 次のトピック | トップ

投稿するにはまず登録を
 
© 1999 Tsutomu Seki.